IUS DEB, 43361

Orbit data source: Space-Track

IUS DEB, 43361 is space debris originally from a launch on Fri, 23 Jul 1999 UTC launched from the Air Force Eastern Test Range (AFETR). Debris objects in space refer to the collection of defunct objects orbiting the Earth. Examples of debris include non-operational satellites, rocket bodies, and fragments generated from explosions, collisions, or faulty payload assembly.

Loading next visibility...
Identifier
43361, 1999-040J
Orbit
Active
Last TLE update
13 hours ago
Origin
Manufacturer
Boeing/Kent
Mission
Spacecraft
Bus & Motor
Unknown
Mass
Unknown
Launch date (UTC)
1999-07-23 (26 years ago)
Launch vehicle
Unknown
Launch site
Air Force Eastern Test Range (AFETR)
Object type
Payload
Rocket body
Debris
Shape & HBR
Unknown
Radar Cross Section
Small (<0.1 m²)

Expand to show TLE details & history

TLE from 13 hours ago
0 IUS DEB
1 43361U 99040J   25199.42172782  .00000296  00000-0  64974-2 0  9997
2 43361  27.8585 263.6987 3366010 164.5449 209.0329  7.21205438 94434
Epoch: 2025-07-18T10:07Z
TLE epoch observation values (Epoch: 2025-07-18T10:07:17.283Z)
Latitude
-0.00001°
Longitude
175.40325°
Altitude
8,471.577 km
Speed
4.298 km/s
True Right ascension
17h 34m 47s
True Declination
0° 00' 00"
Sunlit
Object was in daylight at epoch
Visualization orbit readout
Latitude
5.73005°
Longitude
-174.52975°
Altitude
7,984.742 km
Speed
4.505 km/s
Apparent Right ascension
19h 31m 40s
Apparent Declination
-10° 02' 20"
Sunlit
Object is in daylight
Visualization observer readout
Local Sidereal Time
12:24:19
Azimuth
87.004° E
Elevation
-19.306°
Doppler factor
1
Orbital elements
Apogee altitude
8,751.141 km
Perigee altitude
1,131.021 km
Semi-major axis
11,319.218 km
Eccentricity
0.3366
Inclination
27.8585°
RAAN
263.6987°
Arg. of periapsis
164.5449°
True anomaly
195.49064°
Mean anomaly
209.0329°
Eccentric anomaly
201.85392°
Mean motion
1.80226 °/min
Orbital period
199.75 mins
BSTAR
0.0064974
Loading maneuver chart data...
Loading SW <> Apogee altitude chart data...
Loading historical data...
Loading historical data...
Loading historical data...
Loading historical data...
Loading historical data...
Loading historical data...
Loading historical data...
|